#timestamp,LO_Frequency,Hit,StdDev 
1595084415.7,286046999.3,N
1595084435.5,286046999.0,N
1595084455.4,286046999.3,N
1595084475.2,286046997.2,Y
1595084495.0,286046998.9,P
1595084495.9,286046998.9,P
1595084515.8,286047001.1,P
1595084535.6,286047001.2,N
1595084555.4,286046998.4,N
1595084575.3,286046998.6,N
1595084595.1,286046998.6,N
1595084615.9,286047000.8,N
1595084635.7,286046998.5,N
1595084655.5,286046998.1,N
1595084675.4,286046998.1,N
1595084695.2,286046998.4,N
1595084715.1,286047001.1,N
1595084716.0,286047001.1,N
1595084735.8,286046998.1,N
1595084755.6,286047001.2,N
1595084775.5,286046998.2,N
1595084795.3,286047001.0,N
1595084815.1,286047000.8,N
1595084835.9,286046998.1,N
1595084855.7,286046998.5,N
1595084875.6,286046998.5,N
1595084895.4,286046998.3,N
1595084915.2,286046998.7,N
1595084935.1,286046999.3,N
1595084936.0,286046999.3,N
1595084955.8,286046999.1,N
1595084975.7,286046998.7,N
1595084995.5,286046998.8,N
1595085015.3,286046998.9,N
1595085035.2,286046998.3,N
1595085055.0,286046998.7,N
1595085055.9,286046998.7,N
1595085075.7,286046998.8,N
1595085095.6,286046998.8,N
1595085115.4,286046998.7,N
1595085135.3,286046998.6,N
1595085155.1,286046998.6,N
1595085175.8,286046998.4,N
1595085195.7,286046998.4,N
1595085215.5,286046999.4,N
1595085235.4,286046998.5,N
1595085255.2,286046998.3,N
1595085275.0,286046998.1,N
1595085275.9,286046998.1,N
1595085295.8,286046998.1,N
1595085315.6,286047001.0,N
1595085335.4,286047000.4,N
1595085355.3,286047000.8,N
1595085375.1,286047000.0,N
1595085395.9,286047000.5,N
1595085415.7,286047000.4,N
1595085435.5,286047000.8,N
1595085455.4,286047001.2,N
1595085475.2,286046998.2,N
1595085495.1,286046999.9,N
1595085496.0,286046999.9,N
1595085515.8,286047002.6,N
1595085535.6,286047002.5,N
1595085555.5,286047004.0,Y
1595085575.3,286047003.7,P
1595085595.2,286047001.5,N
1595085615.9,286047001.9,N
1595085635.7,286046999.8,N
1595085655.6,286047002.7,N
1595085675.4,286047001.7,N
1595085695.2,286047002.5,N
1595085715.1,286047002.1,N
1595085716.0,286047002.1,N
1595085735.8,286047001.6,N
1595085755.7,286047001.3,N
1595085775.5,286047001.4,N
1595085795.3,286047002.7,N
1595085815.2,286047000.9,N
1595085835.0,286047000.4,N
1595085835.9,286047000.4,N
1595085855.8,286047000.2,N
1595085875.6,286047000.1,N
1595085895.4,286047001.1,N
1595085915.3,286047000.6,N
1595085935.1,286047001.0,N
1595085955.8,286047000.4,N
1595085975.7,286046999.7,N
1595085995.5,286047002.2,N
1595086015.4,286047003.9,Y
1595086035.2,286046998.6,P
1595086055.0,286046998.4,N
1595086055.9,286046998.4,N
1595086075.8,286046999.0,N
1595086095.6,286046997.2,N
1595086115.5,286046996.7,N
1595086135.3,286046997.2,N
1595086155.1,286046995.0,Y
1595086175.9,286046998.6,P
1595086195.7,286046999.4,P
1595086215.6,286046998.8,N
1595086235.4,286046996.7,Y
1595086255.2,286046999.0,P
1595086275.1,286046997.1,P
1595086276.0,286046997.1,P
1595086295.8,286046996.9,Y
1595086315.7,286046999.1,P
1595086335.5,286046999.0,N
1595086355.3,286047001.0,N
1595086375.2,286047001.0,N
1595086395.0,286046998.2,N
1595086395.9,286046998.2,N
1595086415.7,286046998.7,N
1595086435.6,286047000.8,N
1595086455.4,286046996.5,N
1595086475.3,286046998.3,N
1595086495.1,286046998.3,N
1595086496.0,286046998.3,N
1595086515.8,286046998.5,N
1595086535.7,286046998.5,N
1595086555.5,286046998.7,N
1595086575.4,286046996.8,N
1595086595.2,286047002.2,N
1595086615.0,286047001.7,N
1595086615.9,286047001.7,N
1595086635.8,286047000.8,N
1595086655.6,286046998.2,N
1595086675.5,286046998.7,N
1595086695.3,286046996.5,N
1595086715.1,286046996.9,N
1595086735.9,286046999.1,N
1595086755.7,286047001.2,N
1595086775.6,286047000.0,N
1595086795.4,286047002.4,N
1595086815.2,286047002.6,N
1595086835.1,286047002.4,N
1595086836.0,286047002.4,N
1595086855.8,286047004.3,N
1595086875.6,286047004.4,N
1595086895.5,286047002.6,N
1595086915.3,286047004.4,N
1595086935.2,286047001.4,N
1595086955.9,286047004.2,N
1595086975.7,286047004.3,N
1595086995.6,286047003.2,N
1595087015.4,286047003.5,N
1595087035.3,286047003.7,N
1595087055.1,286047004.2,N
1595087056.0,286047004.2,N
1595087075.8,286047001.3,N
1595087095.7,286047001.5,N
1595087115.5,286047001.9,N
1595087135.4,286047001.6,N
1595087155.2,286047001.9,N
1595087175.0,286047001.5,N
1595087175.9,286047001.5,N
1595087195.8,286047002.5,N
1595087215.6,286047001.6,N
1595087235.5,286047003.9,N
1595087255.3,286047004.4,N
1595087275.1,286047001.4,N
1595087295.9,286047001.6,N
1595087315.7,286047001.8,N
1595087335.6,286047001.8,N
1595087355.4,286047001.4,N
1595087375.2,286047004.0,Y
1595087395.1,286047000.0,P
1595087396.0,286047000.0,N
1595087415.8,286047002.6,N
1595087435.7,286047001.8,N
1595087455.5,286047001.8,N
1595087475.3,286047002.3,N
1595087495.2,286047002.0,N
1595087515.0,286047004.0,Y
1595087515.9,286047004.0,P
1595087535.8,286047001.0,N
1595087555.6,286046999.9,N
1595087575.4,286047002.8,N
1595087595.3,286046998.1,N
1595087615.1,286047001.2,N
1595087635.8,286046999.0,N
1595087655.7,286046998.9,N
1595087675.5,286046998.7,N
1595087695.4,286046998.4,N
1595087715.2,286047001.1,N
1595087735.1,286046998.5,N
1595087736.0,286046998.5,N
1595087755.8,286046998.4,N
1595087775.6,286046998.4,N
1595087795.5,286046998.3,N
1595087815.3,286047001.0,N
1595087835.1,286047000.0,N
1595087855.9,286046998.4,N
1595087875.7,286046998.2,N
1595087895.6,286046998.7,N
1595087915.4,286047001.1,N
1595087935.2,286047000.8,N
1595087955.1,286046998.6,N
1595087956.0,286046998.6,N
1595087975.8,286047000.8,N
1595087995.7,286047000.0,N
